Location: Newark
(45.1000°N, 8.5833°E)
Time: 18:42:00
(UTC+00:00)

ISS - Pass Details

Date: 22 September 2019
Orbit: 411 x 421 km, 51.6° (Epoch: 20 October)

Event Time Altitude Azimuth Distance (km) Brightness Sun altitude
Rises 19:18:15 0° 257° (WSW) 2,338 0.9 -20.5°
Reaches altitude 10° 19:20:23 10° 264° (W) 1,478 -0.1 -20.8°
Maximum altitude 19:23:35 45° 339° (NNW) 570 -2.9 -21.4°
Enters shadow 19:23:54 44° 358° (N) 586 -2.9 -21.4°
